Location: Couloutre
(47.4081°N, 3.2259°E)
Time: 21:54:33
(UTC+00:00)

MOS 1 - Pass Details

Date: 27 February 2020
Orbit: 878 x 891 km, 99.2° (Epoch: 29 March)

Event Time Altitude Azimuth Distance (km) Brightness Sun altitude
Rises 18:46:01 0° 149° (SSE) 3,475 7.1 -13.9°
Reaches altitude 10° 18:48:26 10° 145° (SE) 2,538 6.3 -14.3°
Maximum altitude 18:53:56 57° 69° (ENE) 1,037 4.3 -15.3°
Drops below altitude 10° 18:59:28 10° 352° (N) 2,548 6.9 -16.2°
Sets 19:01:53 0° 349° (NNW) 3,490 7.6 -16.6°
